[[{"header":{"parameterUnit":"m.s-1","parameterCategory":1,"la1":30.2991,"la2":30.254,"lo1":-89.0895,"lo2":-89.0444,"dy":0.0017,"dx":0.0017,"nx":28,"ny":28,"refTime":"2025-06-16T03:00:00:Z","depth":0,"parameterNumber":2,"parameterNumberName":"U-component_of_WINDS"},"data":[0,0,0,0,0,0,0,0,0,0,0,0,0,0,0,0,0,0,0,0,0,0,0,0,0,0,0,0,0,0,0,0,0,0,0,0,0,0,0,0,0,0,0,0,0,0,0,0,0,0,0,0,0,0,0,0,0,0,-0.2482,-0.2481,0,-0.2394,-0.2393,-0.2392,-0.2348,-0.2348,-0.2348,-0.2348,-0.2252,-0.2249,-0.2247,0,0,0,0,0,0,0,0,0,0,0,0,0,-0.2607,-0.2605,-0.2482,-0.2481,-0.248,-0.2394,-0.2393,-0.2391,-0.2348,-0.2348,-0.2348,-0.2348,-0.2253,-0.225,-0.2247,0,0,0,0,0,0,0,0,0,0,0,0,0,-0.2539,-0.2604,-0.2482,-0.2448,-0.2444,-0.2394,-0.2393,-0.2391,-0.2348,-0.2348,-0.2348,-0.2348,-0.2254,-0.225,-0.2246,-0.2222,0,0,-0.2234,-0.2233,0,0,0,0,0,0,0,0,-0.2543,-0.2534,-0.2454,-0.245,-0.2445,-0.2382,-0.2402,-0.2334,-0.2348,-0.2384,-0.2348,-0.2348,-0.2295,-0.2287,-0.2271,-0.2218,-0.2214,-0.2234,-0.2232,-0.223,-0.2229,0,0,0,0,0,0,0,-0.2548,-0.2538,-0.2447,-0.2453,-0.2447,-0.2435,-0.2425,-0.2389,-0.234,-0.2381,-0.2377,-0.2368,-0.2292,-0.2275,-0.2268,-0.2212,-0.2234,-0.2231,-0.2228,-0.2227,-0.2136,-0.2136,0,0,0,0,0,0,-0.2559,-0.2542,-0.2449,-0.2444,-0.2495,-0.2433,-0.2422,-0.2402,-0.234,-0.2331,-0.2368,-0.2366,-0.2281,-0.2273,-0.2265,-0.2233,-0.223,-0.2227,-0.2224,-0.2136,-0.2136,-0.2136,0,0,0,0,0,0,-0.2562,-0.2551,-0.2453,-0.2492,-0.2479,-0.2431,-0.2409,-0.24,-0.2383,-0.2331,-0.2321,-0.2359,-0.2281,-0.227,-0.2234,-0.2229,-0.2225,-0.2221,-0.2136,-0.2136,-0.2136,-0.217,0,0,0,0,0,0,-0.2565,-0.2552,-0.2544,-0.2492,-0.2477,-0.2425,-0.2408,-0.2399,-0.2377,-0.2374,-0.232,-0.2311,-0.228,-0.224,-0.223,-0.2224,-0.2218,-0.2136,-0.2136,-0.2136,-0.2169,-0.2171,-0.2173,0,0,0,0,0,-0.257,-0.2555,-0.2544,-0.2533,-0.2466,-0.2425,-0.2416,-0.2382,-0.2377,-0.2367,-0.2334,-0.2313,-0.2232,-0.2236,-0.2225,-0.2218,-0.2137,-0.2136,-0.2136,-0.2168,-0.2171,-0.2173,0,0,0,0,0,0,-0.2605,-0.2548,-0.2534,-0.2503,-0.247,-0.2418,-0.2405,-0.2386,-0.2351,-0.235,-0.2307,-0.2295,-0.2263,-0.2237,-0.2243,-0.2192,-0.2182,-0.2179,-0.221,-0.2212,-0.2214,-0.2221,-0.2215,0,0,0,0,0,-0.261,-0.2583,-0.2534,-0.2511,-0.2495,-0.2453,-0.2434,-0.2411,-0.2374,-0.2359,-0.2323,-0.2286,-0.2252,-0.2231,-0.2197,-0.2165,-0.2153,-0.2155,-0.2157,-0.2158,-0.2156,-0.2138,-0.2139,-0.2135,-0.2135,-0.2135,0,0,-0.2618,-0.2583,-0.2569,-0.2517,-0.2489,-0.2461,-0.2441,-0.2412,-0.2391,-0.2354,-0.2318,-0.2291,-0.2247,-0.2213,-0.2196,-0.219,-0.2155,-0.2158,-0.216,-0.2157,-0.2138,-0.2138,-0.2139,-0.2135,-0.2135,-0.2135,0,0,-0.2619,-0.259,-0.2568,-0.2541,-0.2499,-0.2471,-0.2466,-0.2417,-0.2398,-0.2362,-0.2334,-0.2307,-0.225,-0.222,-0.2197,-0.2189,-0.2168,-0.2178,-0.2188,-0.2171,-0.2171,-0.2171,-0.2168,-0.2167,-0.2177,-0.2177,-0.2177,0,-0.2633,-0.2592,-0.2559,-0.2532,-0.251,-0.2478,-0.2455,-0.2429,-0.2377,-0.2362,-0.2356,-0.2284,-0.2252,-0.2212,-0.221,-0.2192,-0.2185,-0.2184,-0.2174,-0.2174,-0.2173,-0.217,-0.2169,-0.2178,-0.2178,-0.2178,-0.2178,0,-0.2613,-0.2584,-0.2572,-0.2525,-0.2501,-0.2477,-0.2439,-0.2418,-0.2398,-0.2371,-0.2334,-0.2295,-0.2253,-0.2242,-0.222,-0.2198,-0.2196,-0.2182,-0.2171,-0.2176,-0.2172,-0.217,-0.2181,-0.218,-0.218,-0.2179,0,0,-0.2632,-0.2569,-0.2565,-0.2543,-0.2495,-0.2472,-0.2445,-0.2407,-0.239,-0.2356,-0.2332,-0.2285,-0.2273,-0.2247,-0.2222,-0.2207,-0.2203,-0.2196,-0.2194,-0.2199,-0.2177,-0.2187,-0.2186,-0.219,-0.2189,-0.2189,-0.218,0,-0.2626,-0.2579,-0.2549,-0.2514,-0.2487,-0.2457,-0.2434,-0.2401,-0.2375,-0.2347,-0.2317,-0.2285,-0.2272,-0.2256,-0.224,-0.2208,-0.2198,-0.2208,-0.2166,-0.2165,-0.2178,-0.2184,-0.2194,-0.2188,-0.2179,-0.2178,-0.2178,0,-0.2612,-0.2582,-0.2544,-0.25,-0.2488,-0.2468,-0.243,-0.2405,-0.2367,-0.2349,-0.2321,-0.2297,-0.2266,-0.2259,-0.2216,-0.2223,-0.2204,-0.2186,-0.2185,-0.2179,-0.2172,-0.2178,-0.2185,-0.2184,-0.2175,-0.2176,-0.2176,0,-0.2631,-0.2579,-0.2551,-0.2533,-0.2481,-0.2468,-0.2445,-0.2407,-0.2386,-0.2353,-0.2338,-0.2301,-0.2281,-0.2252,-0.2217,-0.2215,-0.2178,-0.2168,-0.2162,-0.2163,-0.2155,-0.2156,-0.2158,-0.2143,-0.2143,-0.2143,-0.2143,0,-0.2627,-0.2605,-0.2558,-0.2541,-0.2515,-0.2481,-0.2456,-0.243,-0.2398,-0.2373,-0.2344,-0.2322,-0.2278,-0.225,-0.2222,-0.2191,-0.2182,-0.2166,-0.2159,-0.2168,-0.217,-0.2155,-0.2154,-0.2143,-0.2143,-0.2143,-0.2143,0,-0.2642,-0.261,-0.2577,-0.2531,-0.2519,-0.2503,-0.2463,-0.2444,-0.2417,-0.2387,-0.2378,-0.2335,-0.23,-0.2264,-0.2216,-0.2197,-0.2168,-0.2158,-0.2181,-0.2177,-0.2174,-0.2175,-0.2166,-0.2164,-0.2151,-0.2151,-0.2151,0,-0.2642,-0.2625,-0.2578,-0.2561,-0.254,-0.2513,-0.2492,-0.2457,-0.2436,-0.2392,-0.2378,-0.2342,-0.2312,-0.2258,-0.2222,-0.2185,-0.2174,-0.2174,-0.2168,-0.2179,-0.2174,-0.2176,-0.2174,-0.2175,-0.2176,-0.2176,-0.2176,0,-0.2645,-0.2631,-0.2603,-0.2569,-0.2546,-0.2517,-0.2487,-0.2475,-0.2433,-0.2411,-0.2377,-0.2354,-0.2307,-0.2271,-0.2231,-0.2205,-0.2184,-0.2179,-0.2175,-0.2185,-0.2199,-0.2192,-0.2186,-0.2179,-0.2178,-0.2178,-0.2178,-0.2178,-0.2652,-0.2636,-0.2602,-0.2572,-0.2546,-0.2519,-0.25,-0.2472,-0.2443,-0.2404,-0.2384,-0.235,-0.2313,-0.2257,-0.2232,-0.2204,-0.2198,-0.2193,-0.2191,-0.2191,-0.2194,-0.2204,-0.2197,-0.2197,-0.2196,-0.2196,-0.2196,0,-0.2654,-0.2631,-0.2604,-0.2564,-0.2541,-0.2525,-0.2491,-0.2472,-0.2443,-0.2411,-0.2383,-0.2343,-0.2309,-0.2271,-0.2234,-0.2219,-0.2208,-0.221,-0.2211,-0.2206,-0.2201,-0.2208,-0.222,-0.222,-0.222,-0.222,-0.222,-0.222,-0.2652,-0.2625,-0.2606,-0.2565,-0.2541,-0.251,-0.2492,-0.2467,-0.2441,-0.24,-0.2372,-0.2348,-0.2314,-0.2274,-0.2242,-0.2231,-0.2219,-0.2224,-0.2211,-0.2208,-0.2206,-0.2204,-0.221,-0.2222,-0.2222,-0.2217,-0.2217,-0.2217]},{"header":{"parameterUnit":"m.s-1","parameterCategory":1,"la1":30.2991,"la2":30.254,"lo1":-89.0895,"lo2":-89.0444,"dy":0.0017,"dx":0.0017,"nx":28,"ny":28,"refTime":"2025-06-16T03:00:00:Z","depth":0,"parameterNumber":3,"parameterNumberName":"V-component_of_WINDS"},"data":[0,0,0,0,0,0,0,0,0,0,0,0,0,0,0,0,0,0,0,0,0,0,0,0,0,0,0,0,0,0,0,0,0,0,0,0,0,0,0,0,0,0,0,0,0,0,0,0,0,0,0,0,0,0,0,0,0,0,6.0616,6.0615,0,6.0591,6.0591,6.059,6.0567,6.0566,6.0566,6.0566,6.0536,6.0535,6.0535,0,0,0,0,0,0,0,0,0,0,0,0,0,6.064,6.064,6.0616,6.0615,6.0615,6.0591,6.0591,6.059,6.0567,6.0566,6.0566,6.0566,6.0536,6.0535,6.0535,0,0,0,0,0,0,0,0,0,0,0,0,0,6.0624,6.064,6.0616,6.0601,6.0599,6.0591,6.0591,6.059,6.0567,6.0566,6.0566,6.0565,6.0536,6.0536,6.0535,6.0539,0,0,6.0532,6.0532,0,0,0,0,0,0,0,0,6.0625,6.0623,6.0603,6.0602,6.06,6.0582,6.0588,6.0573,6.0567,6.0579,6.0566,6.0565,6.0551,6.0549,6.0545,6.0537,6.0536,6.0532,6.0532,6.0531,6.0531,0,0,0,0,0,0,0,6.0626,6.0624,6.0606,6.0603,6.0601,6.0594,6.0591,6.0585,6.0568,6.0578,6.0576,6.0574,6.055,6.0546,6.0544,6.0535,6.0532,6.0532,6.0531,6.0531,6.0531,6.0531,0,0,0,0,0,0,6.063,6.0625,6.0607,6.0605,6.0612,6.0594,6.0591,6.0588,6.0568,6.0564,6.0574,6.0573,6.0548,6.0545,6.0543,6.0547,6.0531,6.0531,6.053,6.053,6.0531,6.0531,0,0,0,0,0,0,6.063,6.0628,6.0608,6.0615,6.0611,6.0594,6.0591,6.0587,6.0583,6.0565,6.0561,6.0573,6.0547,6.0544,6.0541,6.0545,6.053,6.053,6.053,6.053,6.0531,6.0554,0,0,0,0,0,0,6.0631,6.0629,6.063,6.0615,6.0611,6.0606,6.0591,6.0587,6.0583,6.0581,6.0563,6.056,6.0547,6.0542,6.054,6.0544,6.0529,6.0529,6.053,6.0531,6.0553,6.0555,6.0558,0,0,0,0,0,6.0632,6.0637,6.0631,6.0628,6.0613,6.0606,6.0604,6.059,6.0583,6.0584,6.0573,6.056,6.0546,6.0542,6.0539,6.0543,6.0528,6.053,6.0531,6.0551,6.0555,6.0558,0,0,0,0,0,0,6.0651,6.0634,6.0627,6.0627,6.0619,6.0602,6.0603,6.0594,6.0586,6.0584,6.0566,6.0562,6.056,6.0552,6.0547,6.0547,6.0535,6.0536,6.0552,6.0555,6.0558,6.0559,6.0528,0,0,0,0,0,6.0656,6.0653,6.0638,6.0639,6.0635,6.062,6.0617,6.0607,6.0597,6.0593,6.0581,6.057,6.0563,6.0559,6.0552,6.0552,6.0548,6.0554,6.0556,6.0558,6.0559,6.0559,6.0561,6.0535,6.0535,6.0535,0,0,6.0664,6.0655,6.0653,6.0643,6.0635,6.0631,6.0617,6.0614,6.0611,6.0592,6.0588,6.0579,6.0566,6.0565,6.0563,6.0557,6.0566,6.056,6.0562,6.0561,6.056,6.0563,6.0565,6.0535,6.0535,6.0535,0,0,6.0678,6.0671,6.0671,6.0665,6.0654,6.0644,6.0645,6.0631,6.0625,6.0621,6.0607,6.0603,6.0591,6.0583,6.0578,6.0592,6.058,6.059,6.0602,6.0603,6.0605,6.0606,6.0611,6.0613,6.059,6.059,6.059,0,6.0689,6.0685,6.0672,6.0671,6.0666,6.0651,6.0652,6.0645,6.0632,6.0629,6.0623,6.061,6.06,6.0597,6.0601,6.0597,6.0596,6.059,6.0606,6.0607,6.0609,6.0613,6.0615,6.0591,6.0591,6.0591,6.0591,0,6.0699,6.0697,6.0698,6.0688,6.0684,6.0683,6.0671,6.0668,6.066,6.0651,6.0648,6.0636,6.0627,6.0626,6.0616,6.0622,6.0618,6.0609,6.0597,6.0613,6.0617,6.0618,6.0593,6.0593,6.0592,6.0592,0,0,6.0722,6.0707,6.0708,6.0704,6.0692,6.0689,6.0688,6.0681,6.0679,6.0671,6.067,6.0662,6.0654,6.0648,6.0638,6.0639,6.0651,6.063,6.0629,6.0634,6.0656,6.0663,6.0665,6.0644,6.0644,6.0644,6.0657,0,6.0733,6.0731,6.0721,6.0722,6.072,6.0707,6.0706,6.0698,6.0691,6.0687,6.0678,6.0673,6.0663,6.0659,6.066,6.0649,6.0655,6.0648,6.0641,6.0641,6.0644,6.0667,6.0673,6.0685,6.0659,6.0659,6.0659,0,6.0745,6.0741,6.0742,6.0732,6.073,6.073,6.0723,6.072,6.0711,6.0706,6.0701,6.069,6.0688,6.0679,6.0676,6.0671,6.0668,6.0663,6.0663,6.0661,6.065,6.0664,6.0689,6.069,6.0661,6.0661,6.0661,0,6.0761,6.0755,6.0755,6.0752,6.0741,6.0741,6.0736,6.0727,6.0724,6.0718,6.0716,6.0709,6.0705,6.07,6.0689,6.0683,6.0687,6.0676,6.0682,6.0682,6.0681,6.0681,6.0705,6.0681,6.0681,6.0681,6.0681,0,6.0774,6.0775,6.0763,6.0762,6.0764,6.0753,6.0754,6.0747,6.074,6.0738,6.0727,6.0725,6.071,6.0707,6.0698,6.0697,6.0695,6.069,6.0687,6.0691,6.0691,6.0687,6.0685,6.0682,6.0682,6.0681,6.0681,0,6.0791,6.0783,6.0782,6.0773,6.077,6.0771,6.0763,6.0762,6.0755,6.0753,6.0752,6.074,6.0736,6.0724,6.0716,6.071,6.0712,6.0707,6.0715,6.0713,6.0719,6.0718,6.074,6.0742,6.0718,6.0718,6.0718,0,6.08,6.08,6.0792,6.079,6.0786,6.0784,6.0782,6.0771,6.0769,6.0761,6.0761,6.0757,6.0752,6.0746,6.0736,6.0731,6.0726,6.0734,6.0724,6.0728,6.0725,6.0725,6.0725,6.0735,6.0735,6.0736,6.0736,0,6.0815,6.0811,6.0809,6.0805,6.0803,6.0799,6.0795,6.0794,6.0783,6.0781,6.0777,6.0774,6.0768,6.0763,6.0756,6.075,6.0741,6.074,6.074,6.0743,6.0747,6.0744,6.0719,6.0738,6.0738,6.0738,6.0738,6.0738,6.0827,6.0828,6.0822,6.082,6.0816,6.0813,6.0812,6.0806,6.0804,6.0798,6.0793,6.079,6.0783,6.0774,6.0769,6.0766,6.0761,6.0762,6.0762,6.0763,6.0764,6.0749,6.0765,6.0765,6.0765,6.0765,6.0765,0,6.0842,6.0838,6.0836,6.0832,6.083,6.0824,6.0819,6.0818,6.0816,6.0811,6.0808,6.0805,6.0801,6.0792,6.0788,6.0787,6.0783,6.0786,6.0785,6.0784,6.0769,6.0769,6.079,6.079,6.079,6.079,6.079,6.079,6.0849,6.085,6.0846,6.0845,6.0841,6.084,6.0838,6.0835,6.0831,6.0828,6.0826,6.0821,6.0814,6.081,6.0806,6.0803,6.0802,6.0806,6.0802,6.0788,6.0785,6.0783,6.0782,6.0806,6.0806,6.0818,6.0818,6.0818]}]]